Home   Weather   Townsville   Past weeks

Flag for Australia Past Weather in Townsville, Queensland, Australia — Yesterday and Last 2 Weeks

Now
81 °F

Scattered clouds.


Feels Like: 84 °F
Forecast: 73 / 85 °F
Wind: 10 mph from Northeast

Location: Townsville Amo

Current Time: Dec 4, 2016 at 8:06:02 am

Latest Report: Dec 4, 2016 at 7:00 am


Visibility: N/A

Pressure: 29.95 "Hg

Humidity: 70%

Dew Point: 70 °F

Location of TownsvilleLocation

Past Weather in Townsville — Graph

°F

Townsville Temperature Yesterday

Maximum temperature yesterday: 90 °F (at 11:00 am)
Minimum temperature yesterday: 75 °F (at 5:00 am)
Average temperature yesterday: 82 °F

High & Low Weather Summary for the Past Weeks

 TemperatureHumidityPressure
High95 °F (Dec 2, 2:00 pm)94% (Nov 24, 5:00 am)29.95 "Hg (Nov 24, 5:00 am)
Low70 °F (Nov 24, 2:30 am)20% (Dec 2, 2:00 pm)29.74 "Hg (Nov 23, 3:00 pm)
Average81 °F64%29.85 "Hg
* Reported Nov 19 7:00 am — Dec 4 7:00 am, Townsville, Weather by CustomWeather, © 2016

Note: Actual official high and low records may vary slightly from our data, if they occured in-between our weather recording intervals... More about our weather records

Advertising

Townsville Weather History for the Previous 24 Hours

Scroll right to see more
 ConditionsComfort  
Time TempWeatherWind HumidityBarometerVisibility
7:00 am
Sun, Dec 4
81 °FScattered clouds.10 mph70%29.95 "HgN/A
6:30 am82 °FBroken clouds.10 mph70%29.95 "HgN/A
6:00 am81 °FScattered clouds.10 mph70%29.95 "HgN/A
5:30 am81 °FScattered clouds.9 mph70%29.95 "HgN/A
5:00 am81 °FPassing clouds.8 mph70%29.92 "HgN/A
4:30 am81 °FPassing clouds.8 mph70%29.92 "HgN/A
4:00 am81 °FPassing clouds.9 mph70%29.92 "HgN/A
3:00 am77 °FPassing clouds.No wind79%29.89 "HgN/A
2:00 am77 °FClear.6 mph79%29.92 "HgN/A
1:00 am79 °FClear.6 mph74%29.92 "HgN/A
12:00 am75 °FMostly cloudy.5 mph83%29.92 "HgN/A
11:30 pm
Sat, Dec 3
77 °FPassing clouds.2 mph83%29.92 "HgN/A
11:00 pm79 °FPassing clouds.6 mph79%29.92 "HgN/A
10:00 pm79 °FClear.8 mph79%29.95 "HgN/A
9:30 pm79 °FClear.6 mph79%29.92 "HgN/A
9:00 pm79 °FClear.6 mph79%29.92 "HgN/A
8:30 pm79 °FClear.6 mph79%29.92 "HgN/A
8:00 pm81 °FClear.6 mph74%29.92 "HgN/A
7:00 pm81 °FClear.12 mph70%29.89 "HgN/A
6:00 pm82 °FSunny.15 mph66%29.89 "HgN/A
5:00 pm84 °FSunny.16 mph66%29.86 "HgN/A
4:00 pm86 °FSunny.17 mph62%29.86 "HgN/A
3:00 pm88 °FSunny.16 mph59%29.86 "HgN/A
2:00 pm90 °FSunny.13 mph52%29.86 "HgN/A
1:00 pm88 °FSunny.13 mph55%29.89 "HgN/A
12:00 pm90 °FPartly sunny.12 mph41%29.92 "HgN/A
11:00 am90 °FSunny.10 mph41%29.92 "Hg10 mi
10:00 am88 °FPassing clouds.8 mph52%29.92 "HgN/A
9:30 am86 °FPassing clouds.9 mph55%29.92 "HgN/A
9:00 am86 °FPassing clouds.6 mph55%29.92 "HgN/A
8:00 am84 °FSunny.5 mph66%29.92 "Hg10 mi
Weather by CustomWeather, © 2016

See weather overviewHow to use our weather pages